Home   Weather   Schaffhausen   Past weeks

Flag for Switzerland Past Weather in Schaffhausen, Schaffhausen, Switzerland — Yesterday and Last 2 Weeks

Now
47 °F

Cool.


Feels Like: 47 °F
Forecast: 33 / 46 °F
Wind: 2 mph from Northwest

Location: Zurich-Kloten

Current Time: Apr 30, 2017 at 11:21:34 am

Latest Report: Apr 30, 2017 at 10:00 am


Visibility: N/A

Pressure: 29.93 "Hg

Humidity: 69%

Dew Point: 38 °F

Location of SchaffhausenLocation

Past Weather in Schaffhausen — Graph

°F

Schaffhausen Temperature Yesterday

Maximum temperature yesterday: 56 °F (at 5:00 pm)
Minimum temperature yesterday: 27 °F (at 6:00 am)
Average temperature yesterday: 42 °F

High & Low Weather Summary for the Past Weeks

 TemperatureHumidityPressure
High67 °F (Apr 24, 5:00 pm)100% (Apr 18, 2:00 am)30.59 "Hg (Apr 18, 2:00 am)
Low23 °F (Apr 21, 7:00 am)24% (Apr 21, 3:00 pm)29.75 "Hg (Apr 25, 11:00 pm)
Average43 °F75%30.15 "Hg
* Reported Apr 15 10:00 am — Apr 30 10:00 am, Schaffhausen, Weather by CustomWeather, © 2017

Note: Actual official high and low records may vary slightly from our data, if they occured in-between our weather recording intervals... More about our weather records

Advertising

Schaffhausen Weather History for the Previous 24 Hours

Scroll right to see more
 ConditionsComfort  
Time TempWeatherWind HumidityBarometerVisibility
10:00 am
Sun, Apr 30
47 °FCool.2 mph69%29.93 "HgN/A
9:00 am41 °FQuite cool.3 mph82%29.97 "HgN/A
8:00 am36 °FFog.2 mph93%30.00 "Hg7 mi
7:00 am30 °FChilly.1 mph99%30.02 "HgN/A
6:00 am29 °FChilly.3 mph94%30.03 "HgN/A
5:00 am31 °FFog.2 mph94%30.02 "Hg5 mi
4:00 am32 °FChilly.1 mph96%30.03 "HgN/A
3:00 am33 °FChilly.2 mph96%30.02 "HgN/A
2:00 am34 °FClear.2 mph93%30.03 "Hg9 mi
1:00 am35 °FChilly.3 mph90%30.03 "HgN/A
12:00 am36 °FChilly.2 mph88%30.03 "HgN/A
11:00 pm
Sat, Apr 29
41 °FClear.1 mph72%30.01 "Hg19 mi
10:00 pm47 °FCool.3 mph54%30.00 "HgN/A
9:00 pm47 °FCool.1 mph48%30.00 "HgN/A
8:00 pm52 °FSunny.8 mph38%29.98 "Hg25 mi
7:00 pm54 °FCool.10 mph38%29.98 "HgN/A
6:00 pm54 °FCool.9 mph35%29.99 "HgN/A
5:00 pm56 °FPassing clouds.8 mph42%29.99 "Hg25 mi
4:00 pm53 °FCool.10 mph45%30.01 "HgN/A
3:00 pm53 °FCool.8 mph43%30.02 "HgN/A
2:00 pm52 °FPassing clouds.7 mph41%30.03 "Hg19 mi
1:00 pm51 °FCool.5 mph52%30.05 "HgN/A
12:00 pm49 °FCool.3 mph65%30.08 "HgN/A
11:00 am44 °FFog.2 mph69%30.11 "Hg5 mi
Weather by CustomWeather, © 2017

See weather overviewHow to use our weather pages